Language: 


Des rapports , des résumés tant et plus, au choix de chacun....


Données statistiques de la station
Quotidien Rapport Juillet 6, 2017 Unités:  Anglais    Métrique   les deux
« Précédent Jour
Suivant Jour »
Quotidien Hebdomadaire Mensuel Annuel Actuel
  Haut: Bas: Moyen:
Température: 91.2 °F 59.9 °F 71.2 °F
Pt de rosée: 73.4 °F 55.4 °F 61.7 °F
Humidité: 93 % 37 % 73 %
Vitesse du vent: 12.3 mph 0 mph 3.9 mph
Rafales: 14.3 mph - -
Vent:- - ESE
Pression: 30.1 in 0 in -
Précipitation: 0 in    
Historical Graphs
 
 
Données statistiques pour Juillet 6, 2017
Heure Température Point de rosée Pression Vent Vitesse du vent Refales Humidité Pluie (taux horaire)
00:03 63.9 °F 57.2 °F 30.1 in NNE 2.9 mph 5.6 mph 78 % 0 in
00:08 63.7 °F 57.2 °F 30.1 in NE 0.9 mph 5.6 mph 79 % 0 in
00:13 63.5 °F 57.2 °F 30.1 in ENE 4.7 mph 5.4 mph 79 % 0 in
00:18 63.3 °F 57.2 °F 30.1 in NE 2.5 mph 5.4 mph 80 % 0 in
00:23 63.1 °F 57.2 °F 30.1 in NE 4.3 mph 4.3 mph 80 % 0 in
00:28 63 °F 57.2 °F 30.1 in NE 3.1 mph 5.8 mph 80 % 0 in
00:33 63.1 °F 57.2 °F 30.1 in Calm   5.8 mph 80 % 0 in
00:38 63.1 °F 57.2 °F 30.1 in Calm   5.8 mph 80 % 0 in
00:43 63.3 °F 57.2 °F 30.1 in ENE 2.2 mph 5.8 mph 81 % 0 in
00:48 63.5 °F 57.2 °F 30.1 in NE 5.6 mph 6 mph 80 % 0 in
00:54 63.5 °F 57.2 °F 30.1 in ENE 4.3 mph 6 mph 81 % 0 in
00:59 63.7 °F 57.2 °F 30.1 in NE 5.4 mph 6.5 mph 81 % 0 in
01:04 63.7 °F 57.2 °F 30.1 in NE 5.6 mph 6.5 mph 81 % 0 in
01:09 63.7 °F 57.2 °F 30.1 in NE 6 mph 6.3 mph 81 % 0 in
01:14 63.7 °F 57.2 °F 30.1 in NE 4.3 mph 6.7 mph 81 % 0 in
01:19 63.7 °F 57.2 °F 30.1 in NE 3.1 mph 6.7 mph 81 % 0 in
01:24 63.7 °F 57.2 °F 30.1 in NE 3.6 mph 6 mph 81 % 0 in
01:29 63.3 °F 57.2 °F 30.1 in NE 2.9 mph 6 mph 81 % 0 in
01:34 63 °F 57.2 °F 30.1 in NNE 0.9 mph 4 mph 81 % 0 in
01:39 62.6 °F 57.2 °F 30.1 in North 3.6 mph 4.5 mph 81 % 0 in
01:44 62.2 °F 57.2 °F 30.1 in Calm   4.5 mph 82 % 0 in
01:49 61.9 °F 57.2 °F 30.1 in NE 3.8 mph 5.8 mph 83 % 0 in
01:54 61.7 °F 57.2 °F 30.1 in ENE 2.2 mph 5.8 mph 84 % 0 in
01:59 61.3 °F 57.2 °F 30.1 in Calm   5.8 mph 84 % 0 in
02:04 61.2 °F 57.2 °F 30.1 in NNE 2.7 mph 4.3 mph 84 % 0 in
02:09 61.2 °F 57.2 °F 30.1 in NNE 3.6 mph 6 mph 85 % 0 in
02:14 61.2 °F 57.2 °F 30.1 in Calm   6.3 mph 86 % 0 in
02:19 61.2 °F 57.2 °F 30.1 in NE 0.9 mph 6.3 mph 85 % 0 in
02:24 61.3 °F 57.2 °F 30.1 in NE 4.5 mph 6.3 mph 86 % 0 in
02:29 61.3 °F 57.2 °F 30.1 in NE 3.1 mph 6.3 mph 86 % 0 in
02:34 61.5 °F 57.2 °F 30.1 in Calm   6.3 mph 86 % 0 in
02:39 61.5 °F 57.2 °F 30.1 in NE 3.6 mph 6.3 mph 86 % 0 in
02:44 61.3 °F 57.2 °F 30.1 in ENE 3.8 mph 4.7 mph 86 % 0 in
02:49 61.3 °F 57.2 °F 30.1 in ENE 4.3 mph 4.5 mph 86 % 0 in
02:54 61.2 °F 57.2 °F 30.1 in Calm   4.5 mph 86 % 0 in
02:59 61 °F 57.2 °F 30.1 in Calm   4.3 mph 86 % 0 in
03:04 60.8 °F 57.2 °F 30.1 in Calm   1.1 mph 86 % 0 in
03:05 60.8 °F 57.2 °F 30.1 in Calm   1.1 mph 86 % 0 in
03:10 60.4 °F 55.4 °F 30.1 in Calm   1.1 mph 86 % 0 in
03:15 60.1 °F 55.4 °F 30.1 in Calm     86 % 0 in
03:20 59.9 °F 55.4 °F 30.1 in Calm     86 % 0 in
03:25 59.9 °F 57.2 °F 30.1 in Calm     87 % 0 in
03:30 60.1 °F 57.2 °F 30.1 in Calm   2.7 mph 88 % 0 in
03:35 60.1 °F 57.2 °F 30.1 in Calm   2.7 mph 88 % 0 in
03:40 60.3 °F 57.2 °F 30.1 in Calm   2.5 mph 88 % 0 in
03:45 60.4 °F 57.2 °F 30.1 in ENE 1.1 mph 3.1 mph 88 % 0 in
03:50 60.4 °F 57.2 °F 30 in Calm   3.1 mph 88 % 0 in
03:55 60.4 °F 57.2 °F 30 in Calm   3.1 mph 88 % 0 in
04:00 60.6 °F 57.2 °F 30 in Calm   3.1 mph 88 % 0 in
04:05 60.4 °F 57.2 °F 30 in Calm   2.9 mph 88 % 0 in
04:10 60.6 °F 57.2 °F 30 in Calm   2.2 mph 88 % 0 in
04:15 60.8 °F 57.2 °F 30 in Calm   2.2 mph 88 % 0 in
04:17 60.8 °F 57.2 °F 30 in ENE 2.9 mph 2.9 mph 88 % 0 in
04:22 61 °F 57.2 °F 30 in Calm   2.9 mph 88 % 0 in
04:27 61.2 °F 57.2 °F 30 in ENE 0.9 mph 2.9 mph 88 % 0 in
04:32 61.3 °F 57.2 °F 30 in NE 2 mph 3.8 mph 88 % 0 in
04:37 61.3 °F 57.2 °F 30 in Calm   3.8 mph 88 % 0 in
04:42 61.3 °F 57.2 °F 30 in Calm   2.9 mph 88 % 0 in
04:47 61.5 °F 57.2 °F 30 in Calm   4 mph 88 % 0 in
04:52 61.7 °F 59 °F 30 in Calm   4 mph 88 % 0 in
04:57 61.7 °F 59 °F 30 in NE 0.9 mph 3.1 mph 87 % 0 in
05:02 61.7 °F 59 °F 30.1 in Calm   3.6 mph 87 % 0 in
05:07 61.7 °F 59 °F 30.1 in Calm   3.6 mph 87 % 0 in
05:12 61.7 °F 59 °F 30.1 in Calm     87 % 0 in
05:17 61.5 °F 57.2 °F 30 in Calm   1.6 mph 87 % 0 in
05:22 61.5 °F 57.2 °F 30 in Calm   1.6 mph 87 % 0 in
05:27 61.3 °F 57.2 °F 30 in Calm     87 % 0 in
05:32 61.3 °F 57.2 °F 30 in Calm   4.3 mph 87 % 0 in
05:37 61.3 °F 57.2 °F 30 in Calm   4.3 mph 87 % 0 in
05:42 61.5 °F 57.2 °F 30 in ENE 1.6 mph 2.7 mph 87 % 0 in
05:48 61.7 °F 59 °F 30 in ENE 4.3 mph 4.9 mph 87 % 0 in
05:53 61.9 °F 59 °F 30 in NE 3.1 mph 4.9 mph 87 % 0 in
05:58 61.9 °F 57.2 °F 30 in Calm   4.9 mph 86 % 0 in
06:03 61.9 °F 57.2 °F 30 in ESE 0.9 mph 3.1 mph 86 % 0 in
06:13 62.2 °F 57.2 °F 30 in Calm   0.9 mph 85 % 0 in
06:18 62.6 °F 57.2 °F 30 in ENE 3.1 mph 3.1 mph 84 % 0 in
06:23 63 °F 57.2 °F 30 in ENE 0.9 mph 3.1 mph 83 % 0 in
06:28 63 °F 57.2 °F 30 in Calm   4 mph 83 % 0 in
06:33 63.1 °F 57.2 °F 30 in East 2.7 mph 4 mph 83 % 0 in
06:38 63.3 °F 57.2 °F 30 in East 3.8 mph 5.4 mph 83 % 0 in
06:43 63.5 °F 59 °F 30 in East 5.4 mph 5.4 mph 83 % 0 in
06:48 63.5 °F 59 °F 30 in Calm   5.4 mph 82 % 0 in
06:58 63.9 °F 59 °F 30 in ESE 4 mph 6 mph 82 % 0 in
07:03 64 °F 59 °F 30 in ESE 3.1 mph 6 mph 82 % 0 in
07:08 64.2 °F 59 °F 30 in Calm   5.8 mph 82 % 0 in
07:13 64.2 °F 59 °F 30 in Calm   4.3 mph 82 % 0 in
07:18 64.4 °F 59 °F 30 in Calm   4 mph 82 % 0 in
07:23 64.8 °F 59 °F 30 in Calm   4 mph 82 % 0 in
07:28 65.1 °F 59 °F 30 in Calm   3.1 mph 81 % 0 in
07:33 65.1 °F 59 °F 30 in East 4 mph 4.9 mph 81 % 0 in
07:38 65.3 °F 59 °F 30 in East 4 mph 4.9 mph 81 % 0 in
07:43 65.5 °F 59 °F 30 in Calm   6 mph 81 % 0 in
07:48 65.7 °F 59 °F 30 in East 3.8 mph 6 mph 81 % 0 in
07:53 65.8 °F 59 °F 30 in ESE 3.4 mph 6 mph 81 % 0 in
07:59 65.8 °F 59 °F 30 in Calm   7.2 mph 81 % 0 in
08:04 66 °F 60.8 °F 30 in Calm   7.2 mph 81 % 0 in
08:09 66 °F 60.8 °F 30 in ENE 2.7 mph 6 mph 81 % 0 in
08:14 66.2 °F 60.8 °F 30 in ENE 5.6 mph 6.5 mph 81 % 0 in
08:19 66.4 °F 60.8 °F 30 in NNE 5.6 mph 6.5 mph 80 % 0 in
08:24 66.7 °F 60.8 °F 30 in Calm   6.5 mph 80 % 0 in
08:29 67.3 °F 60.8 °F 30 in East 3.8 mph 5.8 mph 80 % 0 in
08:34 67.8 °F 62.6 °F 30 in East 2.5 mph 5.8 mph 80 % 0 in
08:39 69.3 °F 62.6 °F 30 in East 7.4 mph 7.4 mph 79 % 0 in
08:44 69.8 °F 62.6 °F 30 in East 5.4 mph 7.4 mph 77 % 0 in
08:49 69.8 °F 62.6 °F 30.1 in ENE 3.6 mph 7.4 mph 76 % 0 in
08:54 70 °F 62.6 °F 30.1 in ENE 4.9 mph 6.5 mph 76 % 0 in
08:59 70.3 °F 62.6 °F 30.1 in ENE 6.9 mph 8.1 mph 75 % 0 in
09:05 71.1 °F 62.6 °F 30 in ESE 6 mph 8.1 mph 75 % 0 in
09:10 72.1 °F 62.6 °F 30 in East 6.3 mph 7.8 mph 73 % 0 in
09:15 72.5 °F 64.4 °F 30 in ENE 4.7 mph 7.8 mph 72 % 0 in
09:20 73 °F 64.4 °F 30 in East 6 mph 7.8 mph 72 % 0 in
09:25 73.6 °F 62.6 °F 30 in East 5.8 mph 8.5 mph 69 % 0 in
09:30 74.5 °F 64.4 °F 30 in SE 0.9 mph 8.5 mph 70 % 0 in
09:35 75 °F 64.4 °F 30 in East 4.7 mph 7.8 mph 68 % 0 in
09:40 75.6 °F 64.4 °F 30 in ENE 6 mph 8.7 mph 66 % 0 in
09:45 76.6 °F 64.4 °F 30 in ENE 4.3 mph 10.1 mph 66 % 0 in
09:50 76.3 °F 64.4 °F 30 in ESE 8.1 mph 10.1 mph 65 % 0 in
09:55 76.8 °F 64.4 °F 30 in East 4.3 mph 9.6 mph 64 % 0 in
10:00 77.5 °F 64.4 °F 30 in East 4.9 mph 8.1 mph 63 % 0 in
10:05 77.5 °F 64.4 °F 30 in East 5.6 mph 8.1 mph 62 % 0 in
10:10 78.3 °F 64.4 °F 30 in East 7.6 mph 10.3 mph 60 % 0 in
10:11 78.4 °F 64.4 °F 30 in ESE 6.5 mph 10.3 mph 60 % 0 in
10:16 79 °F 64.4 °F 30 in East 6.9 mph 10.3 mph 60 % 0 in
10:21 79.3 °F 64.4 °F 30 in East 2.5 mph 9.8 mph 58 % 0 in
10:26 79.7 °F 64.4 °F 30 in East 9.8 mph 10.5 mph 57 % 0 in
10:31 79.9 °F 64.4 °F 30 in East 10.3 mph 10.5 mph 57 % 0 in
10:36 79.9 °F 62.6 °F 30 in SE 7.6 mph 10.3 mph 56 % 0 in
10:41 80.6 °F 62.6 °F 30 in ENE 7.8 mph 11 mph 55 % 0 in
10:46 81.1 °F 64.4 °F 30 in East 7.2 mph 11 mph 54 % 0 in
10:51 81.3 °F 64.4 °F 30 in SSE 9.2 mph 9.2 mph 56 % 0 in
10:58 80.8 °F 62.6 °F 30 in ENE 2.9 mph 9.2 mph 55 % 0 in
11:09 79.5 °F 62.6 °F 30 in ESE 3.6 mph 10.5 mph 55 % 0 in
11:11 79.2 °F 62.6 °F 30 in SE 4.3 mph 10.5 mph 55 % 0 in
11:14 79.2 °F 62.6 °F 30 in ESE 6.5 mph 10.5 mph 56 % 0 in
11:20 78.4 °F 62.6 °F 30 in ESE 2.2 mph 7.4 mph 58 % 0 in
11:21 77.9 °F 62.6 °F 30 in Calm   7.4 mph 58 % 0 in
11:22 77.9 °F 62.6 °F 30 in Calm   7.4 mph 58 % 0 in
11:24 77.5 °F 62.6 °F 30 in Calm   7.4 mph 58 % 0 in
11:26 77.4 °F 62.6 °F 30 in Calm   7.4 mph 59 % 0 in
11:27 77.4 °F 62.6 °F 30 in Calm   7.4 mph 59 % 0 in
11:30 76.8 °F 62.6 °F 30 in WSW 5.4 mph 6 mph 60 % 0 in
11:31 76.6 °F 62.6 °F 30 in WSW 3.6 mph 5.4 mph 60 % 0 in
11:34 76.1 °F 62.6 °F 30 in WSW 6.5 mph 8.1 mph 61 % 0 in
11:39 75.6 °F 62.6 °F 30 in SW 6.7 mph 10.7 mph 62 % 0 in
11:44 74.3 °F 64.4 °F 30 in SSW 6.3 mph 13 mph 69 % 0 in
11:49 72.5 °F 64.4 °F 30.1 in SSE 4.7 mph 13 mph 74 % 0 in
11:54 71.8 °F 64.4 °F 30.1 in Calm   10.7 mph 76 % 0 in
11:59 70.9 °F 64.4 °F 30.1 in Calm   5.6 mph 80 % 0 in
12:04 70.2 °F 64.4 °F 30 in SE 4.3 mph 5.6 mph 81 % 0 in
12:09 69.6 °F 64.4 °F 30 in Calm   5.6 mph 83 % 0 in
12:14 69.4 °F 64.4 °F 30 in Calm   4.7 mph 83 % 0 in
12:19 69.1 °F 64.4 °F 30 in SE 4.7 mph 6.3 mph 85 % 0 in
12:24 68.7 °F 64.4 °F 30 in SE 3.1 mph 6.3 mph 87 % 0 in
12:29 68.5 °F 66.2 °F 30 in ESE 6.3 mph 6.5 mph 90 % 0 in
12:39 68 °F 66.2 °F 30 in NE 12.3 mph 12.3 mph 91 % 0 in
12:45 67.6 °F 64.4 °F 30 in ESE 5.8 mph 12.3 mph 91 % 0 in
12:50 67.6 °F 64.4 °F 0 in SSE 2.7 mph 12.3 mph 91 % 0 in
12:55 67.6 °F 64.4 °F 0 in SE 7.2 mph 7.8 mph 92 % 0 in
13:00 67.6 °F 64.4 °F 29.9 in SE 8.5 mph 8.5 mph 92 % 0 in
13:05 67.8 °F 66.2 °F 29.9 in Calm   8.7 mph 93 % 0 in
13:10 68 °F 66.2 °F 29.9 in SE 5.4 mph 8.7 mph 92 % 0 in
13:15 68.5 °F 66.2 °F 30 in ESE 4.9 mph 6.5 mph 93 % 0 in
13:20 69.4 °F 68 °F 30 in ESE 7.2 mph 7.2 mph 93 % 0 in
13:25 70.5 °F 68 °F 30 in ESE 4 mph 7.2 mph 93 % 0 in
13:30 72.7 °F 71.6 °F 30 in East 7.4 mph 7.4 mph 93 % 0 in
13:35 74.1 °F 71.6 °F 30 in SE 10.1 mph 10.3 mph 91 % 0 in
13:40 75.2 °F 71.6 °F 30 in SE 10.1 mph 10.3 mph 89 % 0 in
13:45 76.1 °F 73.4 °F 30 in ENE 6.3 mph 10.1 mph 87 % 0 in
13:50 76.8 °F 71.6 °F 30 in SE 6 mph 10.1 mph 83 % 0 in
13:55 77.9 °F 73.4 °F 30 in SE 6 mph 6.3 mph 83 % 0 in
14:00 77.7 °F 71.6 °F 29.9 in SE 6 mph 6 mph 79 % 0 in
14:05 77 °F 69.8 °F 29.9 in SE 6 mph 6 mph 77 % 0 in
14:10 77 °F 69.8 °F 29.9 in SE 6 mph 6 mph 76 % 0 in
14:15 76.8 °F 69.8 °F 29.9 in SE 6 mph 6 mph 76 % 0 in
14:20 77 °F 68 °F 29.9 in SE 6 mph 6 mph 74 % 0 in
14:25 77 °F 68 °F 29.9 in East 6.7 mph 6.7 mph 73 % 0 in
14:30 77 °F 68 °F 29.9 in East 6 mph 6.7 mph 71 % 0 in
14:35 78.8 °F 69.8 °F 29.9 in ESE 5.8 mph 6.7 mph 73 % 0 in
14:40 80.1 °F 71.6 °F 29.9 in ESE 5.8 mph 6 mph 72 % 0 in
14:45 81.7 °F 71.6 °F 29.9 in South 9.8 mph 9.8 mph 69 % 0 in
14:50 83.5 °F 71.6 °F 29.9 in South 9.8 mph 9.8 mph 67 % 0 in
14:56 84.2 °F 69.8 °F 29.9 in SE 6 mph 9.8 mph 62 % 0 in
15:01 85.3 °F 69.8 °F 29.9 in SE 9.8 mph 9.8 mph 58 % 0 in
15:06 85.8 °F 66.2 °F 29.9 in SE 9.8 mph 9.8 mph 53 % 0 in
15:11 86.4 °F 66.2 °F 29.9 in SE 8.7 mph 9.8 mph 50 % 0 in
15:16 87.3 °F 66.2 °F 29.9 in SSE 6.5 mph 9.8 mph 50 % 0 in
15:21 87.8 °F 66.2 °F 29.9 in SE 6.7 mph 8.7 mph 48 % 0 in
15:26 88.2 °F 64.4 °F 29.9 in SE 8.5 mph 10.3 mph 45 % 0 in
15:31 88.7 °F 66.2 °F 29.9 in SE 3.6 mph 10.7 mph 45 % 0 in
15:36 89.1 °F 64.4 °F 29.9 in South 3.1 mph 10.7 mph 44 % 0 in
15:41 88 °F 64.4 °F 29.9 in South 7.8 mph 10.1 mph 44 % 0 in
15:46 88.3 °F 66.2 °F 29.9 in South 7.8 mph 9.6 mph 46 % 0 in
15:51 88.5 °F 66.2 °F 29.9 in SSE 4 mph 7.8 mph 47 % 0 in
15:56 89.6 °F 68 °F 29.9 in SE 6.3 mph 8.1 mph 48 % 0 in
16:01 90 °F 68 °F 29.9 in SE 6.3 mph 8.1 mph 48 % 0 in
16:06 90.1 °F 64.4 °F 29.9 in ESE 4 mph 6.3 mph 43 % 0 in
16:11 89.8 °F 64.4 °F 29.9 in ESE 4 mph 4 mph 42 % 0 in
16:16 90 °F 64.4 °F 29.9 in ESE 4 mph 4 mph 43 % 0 in
16:21 90.3 °F 66.2 °F 29.9 in East 9.4 mph 9.4 mph 44 % 0 in
16:26 90 °F 64.4 °F 29.9 in SE 11.4 mph 11.4 mph 41 % 0 in
16:32 90.1 °F 64.4 °F 29.9 in South 7.4 mph 13 mph 41 % 0 in
16:37 90.1 °F 62.6 °F 29.9 in SE 4 mph 14.3 mph 40 % 0 in
16:42 89.8 °F 60.8 °F 29.9 in SSE 6.5 mph 14.3 mph 38 % 0 in
16:47 90.3 °F 60.8 °F 29.9 in SE 2.9 mph 13.2 mph 38 % 0 in
16:52 91.2 °F 64.4 °F 29.9 in SSE 2.2 mph 12.1 mph 40 % 0 in
16:57 91.2 °F 62.6 °F 29.9 in SSE 9.8 mph 9.8 mph 37 % 0 in
17:02 90.9 °F 62.6 °F 29.9 in ESE 10.3 mph 13.2 mph 38 % 0 in
17:07 90.9 °F 62.6 °F 29.9 in SE 12.1 mph 13.2 mph 38 % 0 in
17:12 90.9 °F 62.6 °F 29.9 in ESE 9.2 mph 12.1 mph 38 % 0 in
17:17 90.9 °F 62.6 °F 29.9 in SSE 3.8 mph 12.3 mph 39 % 0 in
17:22 90.7 °F 62.6 °F 29.9 in SSE 7.8 mph 13.6 mph 39 % 0 in
17:27 90.9 °F 64.4 °F 29.9 in East 5.4 mph 13.6 mph 40 % 0 in
17:32 90.7 °F 62.6 °F 29.9 in SSE 9.6 mph 12.8 mph 39 % 0 in
17:39 90.3 °F 62.6 °F 29.9 in South 10.3 mph 12.8 mph 40 % 0 in
17:44 90.5 °F 64.4 °F 29.9 in SSE 8.1 mph 12.8 mph 41 % 0 in
Le Gheer Warneton
Courtoisie de Weather Underground - 1.75 mb

Mise a jour : 17-12-17 07:08:12
Généré par Cumulus 1.9.4 (1099)